Year,Month,Day,Hour,Minute,Value (Times are PST for temperature in C)
2019,05,05,00,00,10.50
2019,05,05,00,01,10.50
2019,05,05,00,02,10.40
2019,05,05,00,03,10.30
2019,05,05,00,04,10.20
2019,05,05,00,05,10.20
2019,05,05,00,06,10.10
2019,05,05,00,07,10.00
2019,05,05,00,08,9.90
2019,05,05,00,09,9.80
2019,05,05,00,10,9.80
2019,05,05,00,11,9.80
2019,05,05,00,12,9.70
2019,05,05,00,13,9.70
2019,05,05,00,14,9.60
2019,05,05,00,15,9.60
2019,05,05,00,16,9.60
2019,05,05,00,17,9.60
2019,05,05,00,18,9.50
2019,05,05,00,19,9.50
2019,05,05,00,20,9.50
2019,05,05,00,21,9.50
2019,05,05,00,22,9.40
2019,05,05,00,23,9.40
2019,05,05,00,24,9.40
2019,05,05,00,25,9.40
2019,05,05,00,26,9.40
2019,05,05,00,27,9.40
2019,05,05,00,28,9.50
2019,05,05,00,29,9.50
2019,05,05,00,30,9.50
2019,05,05,00,31,9.40
2019,05,05,00,32,9.40
2019,05,05,00,33,9.40
2019,05,05,00,34,9.40
2019,05,05,00,35,9.40
2019,05,05,00,36,9.40
2019,05,05,00,37,9.40
2019,05,05,00,38,9.40
2019,05,05,00,39,9.40
2019,05,05,00,40,9.40
2019,05,05,00,41,9.40
2019,05,05,00,42,9.40
2019,05,05,00,43,9.40
2019,05,05,00,44,9.30
2019,05,05,00,45,9.30
2019,05,05,00,46,9.30
2019,05,05,00,47,9.20
2019,05,05,00,48,9.20
2019,05,05,00,49,9.20
2019,05,05,00,50,9.20
2019,05,05,00,51,9.20
2019,05,05,00,52,9.20
2019,05,05,00,53,9.20
2019,05,05,00,54,9.20
2019,05,05,00,55,9.10
2019,05,05,00,56,9.20
2019,05,05,00,57,9.20
2019,05,05,00,58,9.20
2019,05,05,00,59,9.20
2019,05,05,01,00,9.10
2019,05,05,01,01,9.10
2019,05,05,01,02,9.10
2019,05,05,01,03,9.10
2019,05,05,01,04,9.10
2019,05,05,01,05,9.10
2019,05,05,01,06,9.10
2019,05,05,01,07,9.10
2019,05,05,01,08,9.10
2019,05,05,01,09,9.10
2019,05,05,01,10,9.10
2019,05,05,01,11,9.20
2019,05,05,01,12,9.20
2019,05,05,01,13,9.20
2019,05,05,01,14,9.20
2019,05,05,01,15,9.30
2019,05,05,01,16,9.30
2019,05,05,01,17,9.30
2019,05,05,01,18,9.30
2019,05,05,01,19,9.30
2019,05,05,01,20,9.30
2019,05,05,01,21,9.30
2019,05,05,01,22,9.30
2019,05,05,01,23,9.30
2019,05,05,01,24,9.30
2019,05,05,01,25,9.30
2019,05,05,01,26,9.30
2019,05,05,01,27,9.30
2019,05,05,01,28,9.20
2019,05,05,01,29,9.20
2019,05,05,01,30,9.10
2019,05,05,01,31,9.10
2019,05,05,01,32,9.00
2019,05,05,01,33,9.00
2019,05,05,01,34,9.00
2019,05,05,01,35,9.00
2019,05,05,01,36,8.90
2019,05,05,01,37,8.90
2019,05,05,01,38,8.90
2019,05,05,01,39,8.90
2019,05,05,01,40,8.90
2019,05,05,01,41,8.90
2019,05,05,01,42,8.80
2019,05,05,01,43,8.80
2019,05,05,01,44,8.80
2019,05,05,01,45,8.80
2019,05,05,01,46,8.80
2019,05,05,01,47,8.80
2019,05,05,01,48,8.80
2019,05,05,01,49,8.80
2019,05,05,01,50,8.80
2019,05,05,01,51,8.80
2019,05,05,01,52,8.80
2019,05,05,01,53,8.70
2019,05,05,01,54,8.70
2019,05,05,01,55,8.70
2019,05,05,01,56,8.70
2019,05,05,01,57,8.70
2019,05,05,01,58,8.70
2019,05,05,01,59,8.70
2019,05,05,02,00,8.70
2019,05,05,02,01,8.70
2019,05,05,02,02,8.70
2019,05,05,02,03,8.70
2019,05,05,02,04,8.70
2019,05,05,02,05,8.70
2019,05,05,02,06,8.70
2019,05,05,02,07,8.70
2019,05,05,02,08,8.70
2019,05,05,02,09,8.70
2019,05,05,02,10,8.70
2019,05,05,02,11,8.70
2019,05,05,02,12,8.60
2019,05,05,02,13,8.60
2019,05,05,02,14,8.50
2019,05,05,02,15,8.50
2019,05,05,02,16,8.50
2019,05,05,02,17,8.40
2019,05,05,02,18,8.40
2019,05,05,02,19,8.40
2019,05,05,02,20,8.40
2019,05,05,02,21,8.40
2019,05,05,02,22,8.40
2019,05,05,02,23,8.40
2019,05,05,02,24,8.30
2019,05,05,02,25,8.30
2019,05,05,02,26,8.30
2019,05,05,02,27,8.30
2019,05,05,02,28,8.30
2019,05,05,02,29,8.30
2019,05,05,02,30,8.30
2019,05,05,02,31,8.30
2019,05,05,02,32,8.20
2019,05,05,02,33,8.20
2019,05,05,02,34,8.20
2019,05,05,02,35,8.20
2019,05,05,02,36,8.20
2019,05,05,02,37,8.20
2019,05,05,02,38,8.20
2019,05,05,02,39,8.20
2019,05,05,02,40,8.20
2019,05,05,02,41,8.20
2019,05,05,02,42,8.20
2019,05,05,02,43,8.20
2019,05,05,02,44,8.20
2019,05,05,02,45,8.20
2019,05,05,02,46,8.10
2019,05,05,02,47,8.10
2019,05,05,02,48,8.10
2019,05,05,02,49,8.10
2019,05,05,02,50,8.10
2019,05,05,02,51,8.10
2019,05,05,02,52,8.10
2019,05,05,02,53,8.00
2019,05,05,02,54,8.00
2019,05,05,02,55,8.00
2019,05,05,02,56,8.00
2019,05,05,02,57,8.00
2019,05,05,02,58,7.90
2019,05,05,02,59,7.90
2019,05,05,03,00,7.90
2019,05,05,03,01,7.90
2019,05,05,03,02,7.90
2019,05,05,03,03,7.90
2019,05,05,03,04,7.90
2019,05,05,03,05,7.90
2019,05,05,03,06,7.90
2019,05,05,03,07,7.90
2019,05,05,03,08,7.90
2019,05,05,03,09,7.80
2019,05,05,03,10,7.80
2019,05,05,03,11,7.80
2019,05,05,03,12,7.80
2019,05,05,03,13,7.80
2019,05,05,03,14,7.80
2019,05,05,03,15,7.80
2019,05,05,03,16,7.80
2019,05,05,03,17,7.70
2019,05,05,03,18,7.70
2019,05,05,03,19,7.70
2019,05,05,03,20,7.70
2019,05,05,03,21,7.70
2019,05,05,03,22,7.70
2019,05,05,03,23,7.70
2019,05,05,03,24,7.80
2019,05,05,03,25,7.70
2019,05,05,03,26,7.70
2019,05,05,03,27,7.70
2019,05,05,03,28,7.70
2019,05,05,03,29,7.70
2019,05,05,03,30,7.70
2019,05,05,03,31,7.70
2019,05,05,03,32,7.70
2019,05,05,03,33,7.70
2019,05,05,03,34,7.70
2019,05,05,03,35,7.70
2019,05,05,03,36,7.70
2019,05,05,03,37,7.80
2019,05,05,03,38,7.80
2019,05,05,03,39,7.80
2019,05,05,03,40,7.80
2019,05,05,03,41,7.80
2019,05,05,03,42,7.80
2019,05,05,03,43,7.80
2019,05,05,03,44,7.80
2019,05,05,03,45,7.80
2019,05,05,03,46,7.80
2019,05,05,03,47,7.80
2019,05,05,03,48,7.70
2019,05,05,03,49,7.70
2019,05,05,03,50,7.70
2019,05,05,03,51,7.60
2019,05,05,03,52,7.60
2019,05,05,03,53,7.60
2019,05,05,03,54,7.50
2019,05,05,03,55,7.50
2019,05,05,03,56,7.40
2019,05,05,03,57,7.40
2019,05,05,03,58,7.40
2019,05,05,03,59,7.30
2019,05,05,04,00,7.30
2019,05,05,04,01,7.30
2019,05,05,04,02,7.30
2019,05,05,04,03,7.30
2019,05,05,04,04,7.30
2019,05,05,04,05,7.20
2019,05,05,04,06,7.30
2019,05,05,04,07,7.30
2019,05,05,04,08,7.20
2019,05,05,04,09,7.20
2019,05,05,04,10,7.20
2019,05,05,04,11,7.20
2019,05,05,04,12,7.20
2019,05,05,04,13,7.20
2019,05,05,04,14,7.20
2019,05,05,04,15,7.20
2019,05,05,04,16,7.20
2019,05,05,04,17,7.20
2019,05,05,04,18,7.10
2019,05,05,04,19,7.10
2019,05,05,04,20,7.10
2019,05,05,04,21,7.10
2019,05,05,04,22,7.10
2019,05,05,04,23,7.10
2019,05,05,04,24,7.10
2019,05,05,04,25,7.10
2019,05,05,04,26,7.10
2019,05,05,04,27,7.10
2019,05,05,04,28,7.10
2019,05,05,04,29,7.00
2019,05,05,04,30,7.00
2019,05,05,04,31,7.00
2019,05,05,04,32,7.00
2019,05,05,04,33,7.00
2019,05,05,04,34,7.00
2019,05,05,04,35,7.00
2019,05,05,04,36,7.00
2019,05,05,04,37,7.00
2019,05,05,04,38,7.00
2019,05,05,04,39,6.90
2019,05,05,04,40,6.90
2019,05,05,04,41,6.90
2019,05,05,04,42,6.90
2019,05,05,04,43,6.80
2019,05,05,04,44,6.80
2019,05,05,04,45,6.80
2019,05,05,04,46,6.80
2019,05,05,04,47,6.80
2019,05,05,04,48,6.80
2019,05,05,04,49,6.80
2019,05,05,04,50,6.90
2019,05,05,04,51,6.90
2019,05,05,04,52,7.00
2019,05,05,04,53,7.00
2019,05,05,04,54,7.00
2019,05,05,04,55,7.00
2019,05,05,04,56,7.00
2019,05,05,04,57,7.00
2019,05,05,04,58,7.00
2019,05,05,04,59,7.00
2019,05,05,05,00,7.00
2019,05,05,05,01,7.00
2019,05,05,05,02,7.00
2019,05,05,05,03,7.00
2019,05,05,05,04,7.00
2019,05,05,05,05,6.90
2019,05,05,05,06,6.90
2019,05,05,05,07,6.90
2019,05,05,05,08,6.90
2019,05,05,05,09,6.80
2019,05,05,05,10,6.80
2019,05,05,05,11,6.80
2019,05,05,05,12,6.80
2019,05,05,05,13,6.80
2019,05,05,05,14,6.80
2019,05,05,05,15,6.80
2019,05,05,05,16,6.70
2019,05,05,05,17,6.70
2019,05,05,05,18,6.70
2019,05,05,05,19,6.70
2019,05,05,05,20,6.70
2019,05,05,05,21,6.70
2019,05,05,05,22,6.70
2019,05,05,05,23,6.60
2019,05,05,05,24,6.60
2019,05,05,05,25,6.60
2019,05,05,05,26,6.60
2019,05,05,05,27,6.50
2019,05,05,05,28,6.50
2019,05,05,05,29,6.50
2019,05,05,05,30,6.40
2019,05,05,05,31,6.40
2019,05,05,05,32,6.40
2019,05,05,05,33,6.40
2019,05,05,05,34,6.40
2019,05,05,05,35,6.40
2019,05,05,05,36,6.40
2019,05,05,05,37,6.40
2019,05,05,05,38,6.40
2019,05,05,05,39,6.30
2019,05,05,05,40,6.30
2019,05,05,05,41,6.30
2019,05,05,05,42,6.30
2019,05,05,05,43,6.30
2019,05,05,05,44,6.30
2019,05,05,05,45,6.30
2019,05,05,05,46,6.30
2019,05,05,05,47,6.20
2019,05,05,05,48,6.20
2019,05,05,05,49,6.20
2019,05,05,05,50,6.20
2019,05,05,05,51,6.20
2019,05,05,05,52,6.20
2019,05,05,05,53,6.20
2019,05,05,05,54,6.30
2019,05,05,05,55,6.30
2019,05,05,05,56,6.30
2019,05,05,05,57,6.40
2019,05,05,05,58,6.40
2019,05,05,05,59,6.40
2019,05,05,06,00,6.40
2019,05,05,06,01,6.40
2019,05,05,06,02,6.40
2019,05,05,06,03,6.40
2019,05,05,06,04,6.40
2019,05,05,06,05,6.40
2019,05,05,06,06,6.40
2019,05,05,06,07,6.40
2019,05,05,06,08,6.40
2019,05,05,06,09,6.40
2019,05,05,06,10,6.40
2019,05,05,06,11,6.40
2019,05,05,06,12,6.40
2019,05,05,06,13,6.40
2019,05,05,06,14,6.40
2019,05,05,06,15,6.40
2019,05,05,06,16,6.40
2019,05,05,06,17,6.40
2019,05,05,06,18,6.40
2019,05,05,06,19,6.40
2019,05,05,06,20,6.40
2019,05,05,06,21,6.40
2019,05,05,06,22,6.40
2019,05,05,06,23,6.40
2019,05,05,06,24,6.40
2019,05,05,06,25,6.40
2019,05,05,06,26,6.40
2019,05,05,06,27,6.40
2019,05,05,06,28,6.40
2019,05,05,06,29,6.40
2019,05,05,06,30,6.50
2019,05,05,06,31,6.50
2019,05,05,06,32,6.50
2019,05,05,06,33,6.50
2019,05,05,06,34,6.50
2019,05,05,06,35,6.60
2019,05,05,06,36,6.60
2019,05,05,06,37,6.60
2019,05,05,06,38,6.60
2019,05,05,06,39,6.60
2019,05,05,06,40,6.60
2019,05,05,06,41,6.60
2019,05,05,06,42,6.60
2019,05,05,06,43,6.60
2019,05,05,06,44,6.60
2019,05,05,06,45,6.60
2019,05,05,06,46,6.60
2019,05,05,06,47,6.60
2019,05,05,06,48,6.60
2019,05,05,06,49,6.60
2019,05,05,06,50,6.60
2019,05,05,06,51,6.70
2019,05,05,06,52,6.70
2019,05,05,06,53,6.70
2019,05,05,06,54,6.70
2019,05,05,06,55,6.70
2019,05,05,06,56,6.70
2019,05,05,06,57,6.70
2019,05,05,06,58,6.70
2019,05,05,06,59,6.70
2019,05,05,07,00,6.70
2019,05,05,07,01,6.80
2019,05,05,07,02,6.80
2019,05,05,07,03,6.80
2019,05,05,07,04,6.80
2019,05,05,07,05,6.80
2019,05,05,07,06,6.80
2019,05,05,07,07,6.80
2019,05,05,07,08,6.90
2019,05,05,07,09,6.90
2019,05,05,07,10,6.90
2019,05,05,07,11,7.00
2019,05,05,07,12,7.00
2019,05,05,07,13,7.00
2019,05,05,07,14,7.10
2019,05,05,07,15,7.10
2019,05,05,07,16,7.10
2019,05,05,07,17,7.10
2019,05,05,07,18,7.20
2019,05,05,07,19,7.20
2019,05,05,07,20,7.20
2019,05,05,07,21,7.20
2019,05,05,07,22,7.20
2019,05,05,07,23,7.30
2019,05,05,07,24,7.30
2019,05,05,07,25,7.40
2019,05,05,07,26,7.40
2019,05,05,07,27,7.50
2019,05,05,07,28,7.60
2019,05,05,07,29,7.60
2019,05,05,07,30,7.70
2019,05,05,07,31,7.80
2019,05,05,07,32,7.90
2019,05,05,07,33,8.00
2019,05,05,07,34,8.10
2019,05,05,07,35,8.10
2019,05,05,07,36,8.20
2019,05,05,07,37,8.20
2019,05,05,07,38,8.30
2019,05,05,07,39,8.30
2019,05,05,07,40,8.40
2019,05,05,07,41,8.50
2019,05,05,07,42,8.50
2019,05,05,07,43,8.60
2019,05,05,07,44,8.70
2019,05,05,07,45,8.70
2019,05,05,07,46,8.80
2019,05,05,07,47,8.80
2019,05,05,07,48,8.90
2019,05,05,07,49,8.90
2019,05,05,07,50,8.90
2019,05,05,07,51,8.90
2019,05,05,07,52,9.00
2019,05,05,07,53,9.00
2019,05,05,07,54,9.10
2019,05,05,07,55,9.20
2019,05,05,07,56,9.20
2019,05,05,07,57,9.30
2019,05,05,07,58,9.40
2019,05,05,07,59,9.50
2019,05,05,08,00,9.50
2019,05,05,08,01,9.60
2019,05,05,08,02,9.60
2019,05,05,08,03,9.60
2019,05,05,08,04,9.60
2019,05,05,08,05,9.60
2019,05,05,08,06,9.60
2019,05,05,08,07,9.70
2019,05,05,08,08,9.70
2019,05,05,08,09,9.80
2019,05,05,08,10,9.80
2019,05,05,08,11,9.90
2019,05,05,08,12,10.00
2019,05,05,08,13,10.10
2019,05,05,08,14,10.30
2019,05,05,08,15,10.30
2019,05,05,08,16,10.40
2019,05,05,08,17,10.50
2019,05,05,08,18,10.50
2019,05,05,08,19,10.60
2019,05,05,08,20,10.70
2019,05,05,08,21,10.70
2019,05,05,08,22,10.80
2019,05,05,08,23,10.90
2019,05,05,08,24,11.00
2019,05,05,08,25,11.10
2019,05,05,08,26,11.20
2019,05,05,08,27,11.20
2019,05,05,08,28,11.30
2019,05,05,08,29,11.30
2019,05,05,08,30,11.40
2019,05,05,08,31,11.40
2019,05,05,08,32,11.50
2019,05,05,08,33,11.60
2019,05,05,08,34,11.70
2019,05,05,08,35,11.70
2019,05,05,08,36,11.80
2019,05,05,08,37,11.80
2019,05,05,08,38,11.90
2019,05,05,08,39,12.00
2019,05,05,08,40,12.10
2019,05,05,08,41,12.20
2019,05,05,08,42,12.30
2019,05,05,08,43,12.40
2019,05,05,08,44,12.50
2019,05,05,08,45,12.60
2019,05,05,08,46,12.70
2019,05,05,08,47,12.80
2019,05,05,08,48,13.00
2019,05,05,08,49,13.10
2019,05,05,08,50,13.20
2019,05,05,08,51,13.30
2019,05,05,08,52,13.30
2019,05,05,08,53,13.40
2019,05,05,08,54,13.40
2019,05,05,08,55,13.50
2019,05,05,08,56,13.60
2019,05,05,08,57,13.60
2019,05,05,08,58,13.70
2019,05,05,08,59,13.70
2019,05,05,09,00,13.80
2019,05,05,09,01,13.80
2019,05,05,09,02,13.80
2019,05,05,09,03,13.80
2019,05,05,09,04,13.90
2019,05,05,09,05,13.90
2019,05,05,09,06,13.90
2019,05,05,09,07,13.90
2019,05,05,09,08,14.00
2019,05,05,09,09,14.10
2019,05,05,09,10,14.20
2019,05,05,09,11,14.20
2019,05,05,09,12,14.20
2019,05,05,09,13,14.30
2019,05,05,09,14,14.40
2019,05,05,09,15,14.40
2019,05,05,09,16,14.50
2019,05,05,09,17,14.50
2019,05,05,09,18,14.50
2019,05,05,09,19,14.50
2019,05,05,09,20,14.60
2019,05,05,09,21,14.70
2019,05,05,09,22,14.80
2019,05,05,09,23,14.90
2019,05,05,09,24,15.00
2019,05,05,09,25,15.10
2019,05,05,09,26,15.10
2019,05,05,09,27,15.20
2019,05,05,09,28,15.20
2019,05,05,09,29,15.20
2019,05,05,09,30,15.20
2019,05,05,09,31,15.20
2019,05,05,09,32,15.20
2019,05,05,09,33,15.20
2019,05,05,09,34,15.20
2019,05,05,09,35,15.20
2019,05,05,09,36,15.10
2019,05,05,09,37,15.00
2019,05,05,09,38,14.90
2019,05,05,09,39,14.80
2019,05,05,09,40,14.80
2019,05,05,09,41,14.90
2019,05,05,09,42,15.00
2019,05,05,09,43,15.00
2019,05,05,09,44,15.10
2019,05,05,09,45,15.10
2019,05,05,09,46,15.10
2019,05,05,09,47,15.10
2019,05,05,09,48,15.10
2019,05,05,09,49,15.20
2019,05,05,09,50,15.30
2019,05,05,09,51,15.20
2019,05,05,09,52,15.20
2019,05,05,09,53,15.10
2019,05,05,09,54,15.20
2019,05,05,09,55,15.20
2019,05,05,09,56,15.20
2019,05,05,09,57,15.30
2019,05,05,09,58,15.30
2019,05,05,09,59,15.30
2019,05,05,10,00,15.40
2019,05,05,10,01,15.40
2019,05,05,10,02,15.40
2019,05,05,10,03,15.50
2019,05,05,10,04,15.60
2019,05,05,10,05,15.70
2019,05,05,10,06,15.70
2019,05,05,10,07,15.70
2019,05,05,10,08,15.60
2019,05,05,10,09,15.60
2019,05,05,10,10,15.60
2019,05,05,10,11,15.60
2019,05,05,10,12,15.70
2019,05,05,10,13,15.80
2019,05,05,10,14,15.80
2019,05,05,10,15,15.70
2019,05,05,10,16,15.50
2019,05,05,10,17,15.40
2019,05,05,10,18,15.40
2019,05,05,10,19,15.40
2019,05,05,10,20,15.40
2019,05,05,10,21,15.40
2019,05,05,10,22,15.40
2019,05,05,10,23,15.40
2019,05,05,10,24,15.30
2019,05,05,10,25,15.10
2019,05,05,10,26,14.80
2019,05,05,10,27,14.50
2019,05,05,10,28,14.30
2019,05,05,10,29,14.20
2019,05,05,10,30,14.20
2019,05,05,10,31,14.20
2019,05,05,10,32,14.20
2019,05,05,10,33,14.30
2019,05,05,10,34,14.30
2019,05,05,10,35,14.30
2019,05,05,10,36,14.30
2019,05,05,10,37,14.30
2019,05,05,10,38,14.30
2019,05,05,10,39,14.30
2019,05,05,10,40,14.30
2019,05,05,10,41,14.30
2019,05,05,10,42,14.20
2019,05,05,10,43,14.20
2019,05,05,10,44,14.30
2019,05,05,10,45,14.40
2019,05,05,10,46,14.50
2019,05,05,10,47,14.60
2019,05,05,10,48,14.60
2019,05,05,10,49,14.70
2019,05,05,10,50,14.90
2019,05,05,10,51,15.00
2019,05,05,10,52,15.20
2019,05,05,10,53,15.30
2019,05,05,10,54,15.40
2019,05,05,10,55,15.50
2019,05,05,10,56,15.60
2019,05,05,10,57,15.70
2019,05,05,10,58,15.80
2019,05,05,10,59,15.90
2019,05,05,11,00,15.90
2019,05,05,11,01,15.90
2019,05,05,11,02,16.00
2019,05,05,11,03,16.10
2019,05,05,11,04,16.20
2019,05,05,11,05,16.20
2019,05,05,11,06,16.30
2019,05,05,11,07,16.40
2019,05,05,11,08,16.50
2019,05,05,11,09,16.50
2019,05,05,11,10,16.50
2019,05,05,11,11,16.50
2019,05,05,11,12,16.40
2019,05,05,11,13,16.40
2019,05,05,11,14,16.30
2019,05,05,11,15,16.20
2019,05,05,11,16,16.20
2019,05,05,11,17,16.20
2019,05,05,11,18,16.20
2019,05,05,11,19,16.20
2019,05,05,11,20,16.30
2019,05,05,11,21,16.40
2019,05,05,11,22,16.50
2019,05,05,11,23,16.70
2019,05,05,11,24,16.90
2019,05,05,11,25,17.00
2019,05,05,11,26,17.10
2019,05,05,11,27,17.00
2019,05,05,11,28,16.90
2019,05,05,11,29,16.80
2019,05,05,11,30,16.70
2019,05,05,11,31,16.60
2019,05,05,11,32,16.60
2019,05,05,11,33,16.60
2019,05,05,11,34,16.60
2019,05,05,11,35,16.70
2019,05,05,11,36,16.50
2019,05,05,11,37,16.40
2019,05,05,11,38,16.50
2019,05,05,11,39,16.50
2019,05,05,11,40,16.60
2019,05,05,11,41,16.60
2019,05,05,11,42,16.70
2019,05,05,11,43,16.80
2019,05,05,11,44,16.70
2019,05,05,11,45,16.70
2019,05,05,11,46,16.70
2019,05,05,11,47,16.70
2019,05,05,11,48,16.70
2019,05,05,11,49,16.70
2019,05,05,11,50,16.70
2019,05,05,11,51,16.80
2019,05,05,11,52,16.90
2019,05,05,11,53,17.00
2019,05,05,11,54,16.90
2019,05,05,11,55,17.00
2019,05,05,11,56,17.00
2019,05,05,11,57,17.00
2019,05,05,11,58,17.10
2019,05,05,11,59,17.10
2019,05,05,12,00,17.10
2019,05,05,12,01,17.20
2019,05,05,12,02,17.20
2019,05,05,12,03,17.30
2019,05,05,12,04,17.20
2019,05,05,12,05,17.10
2019,05,05,12,06,17.10
2019,05,05,12,07,17.10
2019,05,05,12,08,17.10
2019,05,05,12,09,17.10
2019,05,05,12,10,17.20
2019,05,05,12,11,17.20
2019,05,05,12,12,17.40
2019,05,05,12,13,17.40
2019,05,05,12,14,17.40
2019,05,05,12,15,17.30
2019,05,05,12,16,17.10
2019,05,05,12,17,17.10
2019,05,05,12,18,17.00
2019,05,05,12,19,16.90
2019,05,05,12,20,16.90
2019,05,05,12,21,16.90
2019,05,05,12,22,16.90
2019,05,05,12,23,17.10
2019,05,05,12,24,17.10
2019,05,05,12,25,17.10
2019,05,05,12,26,17.20
2019,05,05,12,27,17.30
2019,05,05,12,28,17.30
2019,05,05,12,29,17.20
2019,05,05,12,30,17.20
2019,05,05,12,31,17.30
2019,05,05,12,32,17.30
2019,05,05,12,33,17.30
2019,05,05,12,34,17.30
2019,05,05,12,35,17.20
2019,05,05,12,36,17.10
2019,05,05,12,37,17.10
2019,05,05,12,38,17.20
2019,05,05,12,39,17.20
2019,05,05,12,40,17.10
2019,05,05,12,41,17.10
2019,05,05,12,42,17.20
2019,05,05,12,43,17.30
2019,05,05,12,44,17.50
2019,05,05,12,45,17.50
2019,05,05,12,46,17.60
2019,05,05,12,47,17.60
2019,05,05,12,48,17.60
2019,05,05,12,49,17.60
2019,05,05,12,50,17.60
2019,05,05,12,51,17.70
2019,05,05,12,52,17.80
2019,05,05,12,53,17.80
2019,05,05,12,54,17.70
2019,05,05,12,55,17.70
2019,05,05,12,56,17.70
2019,05,05,12,57,17.70
2019,05,05,12,58,17.80
2019,05,05,12,59,17.90
2019,05,05,13,00,17.90
2019,05,05,13,01,17.90
2019,05,05,13,02,18.00
2019,05,05,13,03,17.90
2019,05,05,13,04,17.80
2019,05,05,13,05,17.80
2019,05,05,13,06,17.90
2019,05,05,13,07,18.00
2019,05,05,13,08,18.10
2019,05,05,13,09,18.20
2019,05,05,13,10,18.30
2019,05,05,13,11,18.20
2019,05,05,13,12,18.20
2019,05,05,13,13,18.20
2019,05,05,13,14,18.10
2019,05,05,13,15,18.20
2019,05,05,13,16,18.20
2019,05,05,13,17,18.20
2019,05,05,13,18,18.10
2019,05,05,13,19,18.10
2019,05,05,13,20,18.10
2019,05,05,13,21,18.10
2019,05,05,13,22,18.10
2019,05,05,13,23,18.10
2019,05,05,13,24,18.10
2019,05,05,13,25,18.20
2019,05,05,13,26,18.10
2019,05,05,13,27,18.00
2019,05,05,13,28,17.80
2019,05,05,13,29,17.60
2019,05,05,13,30,17.60
2019,05,05,13,31,17.60
2019,05,05,13,32,17.70
2019,05,05,13,33,17.80
2019,05,05,13,34,17.80
2019,05,05,13,35,17.80
2019,05,05,13,36,17.80
2019,05,05,13,37,17.80
2019,05,05,13,38,17.80
2019,05,05,13,39,17.80
2019,05,05,13,40,17.80
2019,05,05,13,41,17.90
2019,05,05,13,42,18.00
2019,05,05,13,43,18.00
2019,05,05,13,44,17.80
2019,05,05,13,45,17.70
2019,05,05,13,46,17.70
2019,05,05,13,47,17.70
2019,05,05,13,48,17.60
2019,05,05,13,49,17.60
2019,05,05,13,50,17.60
2019,05,05,13,51,17.50
2019,05,05,13,52,17.40
2019,05,05,13,53,17.30
2019,05,05,13,54,17.20
2019,05,05,13,55,17.20
2019,05,05,13,56,17.10
2019,05,05,13,57,17.00
2019,05,05,13,58,16.90
2019,05,05,13,59,16.90
2019,05,05,14,00,16.90
2019,05,05,14,01,16.90
2019,05,05,14,02,17.00
2019,05,05,14,03,17.00
2019,05,05,14,04,17.00
2019,05,05,14,05,17.00
2019,05,05,14,06,17.00
2019,05,05,14,07,17.10
2019,05,05,14,08,17.00
2019,05,05,14,09,16.90
2019,05,05,14,10,16.80
2019,05,05,14,11,16.80
2019,05,05,14,12,16.80
2019,05,05,14,13,16.80
2019,05,05,14,14,16.90
2019,05,05,14,15,16.80
2019,05,05,14,16,16.70
2019,05,05,14,17,16.80
2019,05,05,14,18,16.80
2019,05,05,14,19,16.80
2019,05,05,14,20,16.70
2019,05,05,14,21,16.80
2019,05,05,14,22,16.80
2019,05,05,14,23,16.70
2019,05,05,14,24,16.70
2019,05,05,14,25,16.70
2019,05,05,14,26,16.70
2019,05,05,14,27,16.60
2019,05,05,14,28,16.60
2019,05,05,14,29,16.60
2019,05,05,14,30,16.70
2019,05,05,14,31,16.80
2019,05,05,14,32,16.90
2019,05,05,14,33,16.90
2019,05,05,14,34,16.90
2019,05,05,14,35,16.90
2019,05,05,14,36,17.10
2019,05,05,14,37,17.20
2019,05,05,14,38,17.10
2019,05,05,14,39,17.00
2019,05,05,14,40,16.90
2019,05,05,14,41,16.80
2019,05,05,14,42,16.80
2019,05,05,14,43,16.80
2019,05,05,14,44,16.70
2019,05,05,14,45,16.60
2019,05,05,14,46,16.60
2019,05,05,14,47,16.60
2019,05,05,14,48,16.60
2019,05,05,14,49,16.50
2019,05,05,14,50,16.50
2019,05,05,14,51,16.40
2019,05,05,14,52,16.50
2019,05,05,14,53,16.50
2019,05,05,14,54,16.50
2019,05,05,14,55,16.50
2019,05,05,14,56,16.50
2019,05,05,14,57,16.50
2019,05,05,14,58,16.70
2019,05,05,14,59,16.70
2019,05,05,15,00,16.80
2019,05,05,15,01,16.80
2019,05,05,15,02,16.80
2019,05,05,15,03,16.80
2019,05,05,15,04,16.80
2019,05,05,15,05,16.80
2019,05,05,15,06,16.80
2019,05,05,15,07,16.90
2019,05,05,15,08,16.90
2019,05,05,15,09,16.90
2019,05,05,15,10,16.90
2019,05,05,15,11,16.90
2019,05,05,15,12,16.90
2019,05,05,15,13,16.90
2019,05,05,15,14,17.10
2019,05,05,15,15,17.20
2019,05,05,15,16,17.20
2019,05,05,15,17,17.20
2019,05,05,15,18,17.20
2019,05,05,15,19,17.30
2019,05,05,15,20,17.40
2019,05,05,15,21,17.40
2019,05,05,15,22,17.50
2019,05,05,15,23,17.50
2019,05,05,15,24,17.60
2019,05,05,15,25,17.60
2019,05,05,15,26,17.70
2019,05,05,15,27,17.70
2019,05,05,15,28,17.80
2019,05,05,15,29,17.90
2019,05,05,15,30,18.00
2019,05,05,15,31,18.00
2019,05,05,15,32,17.90
2019,05,05,15,33,17.90
2019,05,05,15,34,17.90
2019,05,05,15,35,18.00
2019,05,05,15,36,18.00
2019,05,05,15,37,18.00
2019,05,05,15,38,17.90
2019,05,05,15,39,17.90
2019,05,05,15,40,17.90
2019,05,05,15,41,18.00
2019,05,05,15,42,18.10
2019,05,05,15,43,18.10
2019,05,05,15,44,18.10
2019,05,05,15,45,18.20
2019,05,05,15,46,18.20
2019,05,05,15,47,18.20
2019,05,05,15,48,18.20
2019,05,05,15,49,18.30
2019,05,05,15,50,18.30
2019,05,05,15,51,18.30
2019,05,05,15,52,18.30
2019,05,05,15,53,18.30
2019,05,05,15,54,18.30
2019,05,05,15,55,18.30
2019,05,05,15,56,18.30
2019,05,05,15,57,18.20
2019,05,05,15,58,18.20
2019,05,05,15,59,18.10
2019,05,05,16,00,18.00
2019,05,05,16,01,18.00
2019,05,05,16,02,18.00
2019,05,05,16,03,18.10
2019,05,05,16,04,18.30
2019,05,05,16,05,18.50
2019,05,05,16,06,18.60
2019,05,05,16,07,18.70
2019,05,05,16,08,18.80
2019,05,05,16,09,18.70
2019,05,05,16,10,18.50
2019,05,05,16,11,18.30
2019,05,05,16,12,18.20
2019,05,05,16,13,18.20
2019,05,05,16,14,18.10
2019,05,05,16,15,18.10
2019,05,05,16,16,18.20
2019,05,05,16,17,18.30
2019,05,05,16,18,18.30
2019,05,05,16,19,18.30
2019,05,05,16,20,18.30
2019,05,05,16,21,18.30
2019,05,05,16,22,18.30
2019,05,05,16,23,18.30
2019,05,05,16,24,18.20
2019,05,05,16,25,18.10
2019,05,05,16,26,18.10
2019,05,05,16,27,18.10
2019,05,05,16,28,18.10
2019,05,05,16,29,18.10
2019,05,05,16,30,18.30
2019,05,05,16,31,18.40
2019,05,05,16,32,18.40
2019,05,05,16,33,18.40
2019,05,05,16,34,18.50
2019,05,05,16,35,18.50
2019,05,05,16,36,18.50
2019,05,05,16,37,18.50
2019,05,05,16,38,18.50
2019,05,05,16,39,18.60
2019,05,05,16,40,18.70
2019,05,05,16,41,18.70
2019,05,05,16,42,18.50
2019,05,05,16,43,18.40
2019,05,05,16,44,18.30
2019,05,05,16,45,18.30
2019,05,05,16,46,18.30
2019,05,05,16,47,18.30
2019,05,05,16,48,18.20
2019,05,05,16,49,18.20
2019,05,05,16,50,18.20
2019,05,05,16,51,18.30
2019,05,05,16,52,18.40
2019,05,05,16,53,18.40
2019,05,05,16,54,18.50
2019,05,05,16,55,18.50
2019,05,05,16,56,18.60
2019,05,05,16,57,18.70
2019,05,05,16,58,18.60
2019,05,05,16,59,18.60
2019,05,05,17,00,18.70
2019,05,05,17,01,18.70
2019,05,05,17,02,18.70
2019,05,05,17,03,18.60
2019,05,05,17,04,18.60
2019,05,05,17,05,18.50
2019,05,05,17,06,18.40
2019,05,05,17,07,18.50
2019,05,05,17,08,18.60
2019,05,05,17,09,18.60
2019,05,05,17,10,18.70
2019,05,05,17,11,18.80
2019,05,05,17,12,18.80
2019,05,05,17,13,18.70
2019,05,05,17,14,18.90
2019,05,05,17,15,19.00
2019,05,05,17,16,19.00
2019,05,05,17,17,18.90
2019,05,05,17,18,18.80
2019,05,05,17,19,18.90
2019,05,05,17,20,18.90
2019,05,05,17,21,19.00
2019,05,05,17,22,19.10
2019,05,05,17,23,19.10
2019,05,05,17,24,19.20
2019,05,05,17,25,19.10
2019,05,05,17,26,19.10
2019,05,05,17,27,19.20
2019,05,05,17,28,19.10
2019,05,05,17,29,19.10
2019,05,05,17,30,19.10
2019,05,05,17,31,19.10
2019,05,05,17,32,19.20
2019,05,05,17,33,19.10
2019,05,05,17,34,19.00
2019,05,05,17,35,18.90
2019,05,05,17,36,18.90
2019,05,05,17,37,18.90
2019,05,05,17,38,18.90
2019,05,05,17,39,18.90
2019,05,05,17,40,19.00